Radiation Dose at Monitoring Post of Fukushima Daini Nuclear Power Station
Date,Time,MP-1(microSv/h),MP-2(microSv/h),MP-3(microSv/h),MP-4(microSv/h),MP-5(microSv/h),MP-6(microSv/h),MP-7(microSv/h),Wind Direction,Wind Velocity(m/s),Rain
2019/01/05,00:00,0.225,0.195,0.314,0.295,0.279,0.157,0.095,west-southwest,6.6,No
2019/01/05,00:10,0.226,0.194,0.315,0.295,0.276,0.157,0.095,west-southwest,6.5,No
2019/01/05,00:20,0.225,0.194,0.315,0.294,0.278,0.157,0.095,west,6.8,No
2019/01/05,00:30,0.227,0.194,0.314,0.295,0.278,0.157,0.095,west-southwest,7.3,No
2019/01/05,00:40,0.226,0.194,0.315,0.296,0.277,0.156,0.095,west,5.2,No
2019/01/05,00:50,0.226,0.195,0.314,0.294,0.277,0.157,0.096,west-southwest,4.4,No
2019/01/05,01:00,0.225,0.193,0.314,0.295,0.278,0.157,0.095,west-southwest,4.7,No
2019/01/05,01:10,0.226,0.194,0.313,0.294,0.278,0.156,0.095,southwest,5.1,No
2019/01/05,01:20,0.225,0.193,0.313,0.295,0.278,0.156,0.095,southwest,5.5,No
2019/01/05,01:30,0.226,0.194,0.315,0.295,0.277,0.157,0.095,southwest,5.1,No
2019/01/05,01:40,0.227,0.194,0.314,0.295,0.278,0.157,0.095,southwest,5.8,No
2019/01/05,01:50,0.225,0.195,0.316,0.294,0.278,0.156,0.096,south-southwest,6.1,No
2019/01/05,02:00,0.226,0.194,0.316,0.296,0.278,0.157,0.095,south-southwest,6.4,No
2019/01/05,02:10,0.227,0.194,0.314,0.296,0.278,0.157,0.095,southwest,8.4,No
2019/01/05,02:20,0.226,0.195,0.316,0.296,0.278,0.157,0.095,southwest,7.7,No
2019/01/05,02:30,0.225,0.194,0.315,0.296,0.280,0.158,0.096,southwest,8.4,No
2019/01/05,02:40,0.225,0.194,0.316,0.295,0.279,0.156,0.095,southwest,8.9,No
2019/01/05,02:50,0.227,0.195,0.315,0.295,0.279,0.157,0.095,southwest,9.2,No
2019/01/05,03:00,0.227,0.194,0.315,0.296,0.279,0.157,0.095,southwest,8.5,No
2019/01/05,03:10,0.227,0.194,0.315,0.295,0.278,0.157,0.095,west-southwest,9.0,No
2019/01/05,03:20,0.226,0.194,0.314,0.295,0.278,0.157,0.096,west-southwest,8.2,No
2019/01/05,03:30,0.225,0.195,0.314,0.297,0.280,0.157,0.095,west-southwest,7.6,No
2019/01/05,03:40,0.227,0.194,0.314,0.296,0.278,0.158,0.096,west-southwest,6.0,No
2019/01/05,03:50,0.226,0.195,0.316,0.294,0.279,0.157,0.096,west-southwest,6.4,No
2019/01/05,04:00,0.226,0.195,0.315,0.295,0.278,0.157,0.095,west-southwest,7.6,No
2019/01/05,04:10,0.226,0.195,0.315,0.296,0.279,0.157,0.095,west-southwest,8.3,No
2019/01/05,04:20,0.226,0.195,0.314,0.297,0.277,0.157,0.096,west-southwest,7.5,No
2019/01/05,04:30,0.227,0.195,0.316,0.295,0.279,0.157,0.096,southwest,7.3,No
2019/01/05,04:40,0.227,0.194,0.315,0.294,0.278,0.157,0.095,west-southwest,7.0,No
2019/01/05,04:50,0.226,0.195,0.314,0.295,0.279,0.157,0.095,southwest,6.2,No
2019/01/05,05:00,0.227,0.193,0.314,0.295,0.277,0.157,0.095,southwest,5.7,No
2019/01/05,05:10,0.227,0.194,0.315,0.296,0.278,0.157,0.096,south-southwest,4.7,No
2019/01/05,05:20,0.228,0.195,0.315,0.294,0.279,0.158,0.095,south-southwest,3.6,No
2019/01/05,05:30,0.227,0.193,0.314,0.295,0.279,0.157,0.095,south,4.3,No
2019/01/05,05:40,0.225,0.194,0.314,0.295,0.277,0.157,0.095,south-southwest,3.4,No
2019/01/05,05:50,0.226,0.194,0.313,0.296,0.278,0.158,0.096,south-southwest,3.5,No
2019/01/05,06:00,0.226,0.194,0.315,0.295,0.279,0.157,0.095,south-southwest,3.2,No
2019/01/05,06:10,0.226,0.195,0.314,0.295,0.278,0.157,0.096,south,2.6,No
2019/01/05,06:20,0.227,0.195,0.315,0.296,0.277,0.156,0.095,southwest,3.8,No
2019/01/05,06:30,0.226,0.193,0.315,0.295,0.279,0.157,0.095,south-southwest,4.2,No
2019/01/05,06:40,0.226,0.194,0.315,0.295,0.279,0.157,0.095,south-southwest,4.5,No
2019/01/05,06:50,0.227,0.195,0.315,0.293,0.277,0.156,0.096,south,4.8,No
2019/01/05,07:00,0.227,0.193,0.314,0.295,0.278,0.157,0.095,south,4.4,No
2019/01/05,07:10,0.226,0.195,0.314,0.295,0.277,0.158,0.095,south-southeast,4.6,No
2019/01/05,07:20,0.226,0.194,0.316,0.296,0.279,0.157,0.096,south,5.9,No
2019/01/05,07:30,0.226,0.195,0.314,0.295,0.278,0.157,0.096,south,5.7,No
2019/01/05,07:40,0.225,0.194,0.314,0.295,0.278,0.157,0.096,south,6.1,No
2019/01/05,07:50,0.225,0.193,0.315,0.295,0.278,0.158,0.096,south,5.9,No
2019/01/05,08:00,0.226,0.195,0.314,0.297,0.280,0.157,0.095,south,5.0,No
2019/01/05,08:10,0.226,0.195,0.316,0.294,0.279,0.157,0.096,south,4.0,No
2019/01/05,08:20,0.225,0.194,0.314,0.294,0.277,0.157,0.096,south-southwest,2.4,No
2019/01/05,08:30,0.226,0.193,0.315,0.293,0.279,0.157,0.096,southwest,3.0,No
2019/01/05,08:40,0.225,0.194,0.313,0.294,0.278,0.157,0.095,west,1.9,No
2019/01/05,08:50,0.227,0.194,0.315,0.296,0.278,0.157,0.095,west-southwest,1.4,No
2019/01/05,09:00,0.226,0.193,0.315,0.294,0.279,0.157,0.096,-,CALM,No
2019/01/05,09:10,0.226,0.194,0.315,0.293,0.277,0.156,0.096,west-southwest,2.4,No
2019/01/05,09:20,0.226,0.195,0.314,0.294,0.279,0.157,0.095,west,3.0,No
2019/01/05,09:30,0.225,0.194,0.313,0.294,0.280,0.158,0.094,northwest,2.0,No
2019/01/05,09:40,0.226,0.194,0.314,0.294,0.279,0.157,0.095,-,CALM,No
2019/01/05,09:50,0.226,0.194,0.315,0.294,0.279,0.158,0.096,-,CALM,No
2019/01/05,10:00,0.227,0.194,0.314,0.295,0.278,0.157,0.095,-,CALM,No
2019/01/05,10:10,0.225,0.194,0.314,0.295,0.276,0.157,0.095,north-northwest,2.2,No
2019/01/05,10:20,0.226,0.193,0.314,0.294,0.279,0.157,0.095,north,0.6,No
2019/01/05,10:30,0.226,0.193,0.315,0.295,0.278,0.155,0.095,south-southwest,2.5,No
2019/01/05,10:40,0.226,0.194,0.314,0.296,0.280,0.157,0.096,east,1.1,No
2019/01/05,10:50,0.225,0.193,0.315,0.294,0.278,0.158,0.096,south-southeast,1.2,No
2019/01/05,11:00,0.225,0.195,0.313,0.296,0.280,0.157,0.096,-,CALM,No
2019/01/05,11:10,0.226,0.194,0.315,0.294,0.278,0.157,0.095,east-southeast,1.1,No
2019/01/05,11:20,0.227,0.193,0.313,0.295,0.280,0.157,0.096,west-northwest,6.8,No
2019/01/05,11:30,0.228,0.195,0.313,0.295,0.279,0.157,0.095,west-northwest,8.6,No
2019/01/05,11:40,0.226,0.195,0.314,0.294,0.279,0.157,0.096,west-northwest,7.0,No
2019/01/05,11:50,0.225,0.194,0.314,0.295,0.278,0.157,0.095,north-northwest,5.2,No
2019/01/05,12:00,0.226,0.195,0.314,0.295,0.278,0.157,0.095,north-northeast,5.8,No
2019/01/05,12:10,0.226,0.194,0.315,0.294,0.280,0.158,0.096,north-northwest,2.8,No
2019/01/05,12:20,0.226,0.195,0.313,0.297,0.279,0.157,0.095,north-northeast,2.9,No
2019/01/05,12:30,0.226,0.195,0.315,0.296,0.282,0.157,0.095,north-northeast,2.7,No
2019/01/05,12:40,0.227,0.195,0.314,0.297,0.279,0.158,0.096,northeast,2.9,No
2019/01/05,12:50,0.225,0.195,0.314,0.295,0.279,0.158,0.096,north-northeast,2.4,No
2019/01/05,13:00,0.226,0.195,0.316,0.296,0.280,0.157,0.096,north-northwest,4.3,No
2019/01/05,13:10,0.226,0.194,0.313,0.294,0.279,0.158,0.096,north-northwest,3.6,No
2019/01/05,13:20,0.227,0.194,0.313,0.294,0.280,0.158,0.095,north-northwest,7.0,No
2019/01/05,13:30,0.226,0.195,0.314,0.294,0.278,0.156,0.096,north-northwest,6.7,No
2019/01/05,13:40,0.225,0.194,0.314,0.296,0.280,0.158,0.095,north-northwest,6.2,No
2019/01/05,13:50,0.226,0.195,0.314,0.293,0.279,0.157,0.096,north-northwest,6.4,No
2019/01/05,14:00,0.227,0.195,0.314,0.295,0.279,0.157,0.095,northwest,5.7,No
2019/01/05,14:10,0.226,0.194,0.314,0.292,0.277,0.157,0.096,north-northwest,4.4,No
2019/01/05,14:20,0.227,0.194,0.317,0.296,0.279,0.158,0.095,north,5.4,No
2019/01/05,14:30,0.225,0.194,0.314,0.293,0.279,0.157,0.096,north-northwest,5.5,No
2019/01/05,14:40,0.225,0.194,0.315,0.296,0.279,0.157,0.096,north-northwest,4.8,No
2019/01/05,14:50,0.227,0.195,0.316,0.294,0.279,0.156,0.095,north-northwest,3.8,No
2019/01/05,15:00,0.227,0.194,0.314,0.296,0.279,0.158,0.096,north,2.8,No
2019/01/05,15:10,0.227,0.195,0.315,0.295,0.282,0.157,0.095,north-northwest,1.8,No
2019/01/05,15:20,0.227,0.195,0.316,0.296,0.280,0.156,0.095,north-northeast,1.3,No
2019/01/05,15:30,0.226,0.195,0.314,0.297,0.280,0.157,0.095,north,1.4,No
2019/01/05,15:40,0.227,0.195,0.315,0.296,0.281,0.157,0.095,northeast,2.3,No
2019/01/05,15:50,0.227,0.195,0.316,0.297,0.279,0.157,0.095,north,1.2,No
2019/01/05,16:00,0.227,0.195,0.313,0.298,0.281,0.156,0.095,north-northwest,1.2,No
2019/01/05,16:10,0.226,0.194,0.315,0.295,0.280,0.159,0.096,northwest,2.0,No
2019/01/05,16:20,0.228,0.196,0.315,0.297,0.278,0.158,0.095,north-northwest,2.7,No
2019/01/05,16:30,0.228,0.195,0.315,0.296,0.280,0.157,0.095,north-northwest,4.8,No
2019/01/05,16:40,0.227,0.196,0.314,0.296,0.279,0.158,0.096,north,4.3,No
2019/01/05,16:50,0.226,0.195,0.314,0.296,0.278,0.157,0.096,north-northwest,4.2,No
2019/01/05,17:00,0.228,0.195,0.315,0.296,0.279,0.158,0.095,north-northwest,3.8,No
2019/01/05,17:10,0.226,0.195,0.314,0.298,0.281,0.158,0.096,north-northwest,4.0,No
2019/01/05,17:20,0.227,0.195,0.316,0.296,0.279,0.158,0.096,north-northwest,4.0,No
2019/01/05,17:30,0.228,0.196,0.317,0.296,0.279,0.157,0.095,north-northwest,3.7,No
2019/01/05,17:40,0.227,0.195,0.315,0.297,0.279,0.158,0.095,north-northwest,4.9,No
2019/01/05,17:50,0.227,0.194,0.315,0.297,0.280,0.157,0.096,north-northwest,5.9,No
2019/01/05,18:00,0.228,0.195,0.316,0.295,0.280,0.157,0.095,north-northwest,5.2,No
2019/01/05,18:10,0.227,0.196,0.316,0.297,0.279,0.158,0.095,north-northwest,5.1,No
2019/01/05,18:20,0.228,0.196,0.315,0.297,0.280,0.157,0.096,north-northwest,5.2,No
2019/01/05,18:30,0.226,0.194,0.315,0.295,0.279,0.158,0.096,north-northwest,5.5,No
2019/01/05,18:40,0.226,0.195,0.315,0.296,0.279,0.157,0.096,northwest,5.4,No
2019/01/05,18:50,0.227,0.195,0.316,0.295,0.280,0.158,0.096,north-northwest,4.3,No
2019/01/05,19:00,0.228,0.194,0.314,0.297,0.280,0.158,0.095,north-northwest,5.2,No
2019/01/05,19:10,0.227,0.194,0.316,0.295,0.278,0.158,0.096,north-northwest,6.3,No
2019/01/05,19:20,0.226,0.195,0.316,0.295,0.279,0.157,0.095,north-northwest,7.1,No
2019/01/05,19:30,0.227,0.195,0.315,0.296,0.279,0.157,0.096,north-northwest,6.4,No
2019/01/05,19:40,0.227,0.194,0.315,0.295,0.280,0.157,0.096,north-northwest,5.9,No
2019/01/05,19:50,0.227,0.195,0.315,0.296,0.279,0.157,0.096,north-northwest,5.5,No
2019/01/05,20:00,0.226,0.195,0.316,0.296,0.279,0.157,0.096,northwest,5.0,No
2019/01/05,20:10,0.227,0.196,0.315,0.297,0.279,0.157,0.095,northwest,5.1,No
2019/01/05,20:20,0.227,0.194,0.315,0.296,0.280,0.158,0.096,northwest,6.6,No
2019/01/05,20:30,0.225,0.196,0.315,0.297,0.278,0.157,0.096,northwest,7.6,Yes
2019/01/05,20:40,0.227,0.196,0.316,0.296,0.280,0.157,0.096,northwest,6.4,Yes
2019/01/05,20:50,0.227,0.196,0.315,0.297,0.279,0.158,0.096,northwest,6.0,Yes
2019/01/05,21:00,0.227,0.196,0.315,0.296,0.280,0.158,0.096,northwest,4.6,No
2019/01/05,21:10,0.228,0.195,0.316,0.296,0.280,0.158,0.096,northwest,3.7,No
2019/01/05,21:20,0.228,0.197,0.316,0.296,0.280,0.158,0.096,northwest,2.2,No
2019/01/05,21:30,0.227,0.197,0.317,0.297,0.280,0.157,0.097,northwest,2.5,No
2019/01/05,21:40,0.229,0.195,0.316,0.297,0.280,0.158,0.096,northwest,2.4,Yes
2019/01/05,21:50,0.227,0.195,0.315,0.296,0.279,0.159,0.097,north-northwest,1.7,Yes
2019/01/05,22:00,0.228,0.196,0.317,0.296,0.280,0.159,0.097,north,3.0,Yes
2019/01/05,22:10,0.227,0.195,0.317,0.298,0.280,0.159,0.097,north-northwest,4.2,Yes
2019/01/05,22:20,0.227,0.196,0.318,0.298,0.279,0.159,0.097,north-northwest,3.6,Yes
2019/01/05,22:30,0.227,0.196,0.315,0.297,0.281,0.159,0.098,north,3.7,No
2019/01/05,22:40,0.228,0.195,0.317,0.296,0.280,0.158,0.097,north,4.0,No
2019/01/05,22:50,0.227,0.196,0.316,0.298,0.281,0.159,0.098,north,4.2,No
2019/01/05,23:00,0.227,0.195,0.315,0.296,0.279,0.158,0.097,north-northwest,4.1,No
2019/01/05,23:10,0.227,0.194,0.315,0.296,0.279,0.158,0.096,north,4.0,No
2019/01/05,23:20,0.227,0.195,0.315,0.297,0.279,0.158,0.096,north-northwest,3.2,No
2019/01/05,23:30,0.228,0.195,0.316,0.297,0.278,0.158,0.096,north-northwest,5.2,No
2019/01/05,23:40,0.227,0.195,0.315,0.295,0.278,0.158,0.096,north-northwest,5.5,No
2019/01/05,23:50,0.226,0.194,0.315,0.296,0.278,0.157,0.096,north-northwest,4.0,No
